Weather History for Davenport, IA

Change the Weather History Date:

Friday, January 31, 2014

  Actual Average Record
Temperature  
Mean Temperature 10 °F 22 °F  
Max Temperature 14 °F 31 °F 58 °F (2012)
Min Temperature 6 °F 14 °F -14 °F (2004)
Degree Days  
Heating Degree Days 55 43  
Month to date heating degree days 1577 1357  
Since 1 July heating degree days 4409 3936  
Cooling Degree Days 0 0  
Month to date cooling degree days 0 0  
Year to date cooling degree days 0 0  
Moisture  
Dew Point 2 °F    
Average Humidity 71    
Maximum Humidity 80    
Minimum Humidity 61    
Precipitation  
Precipitation T in 0.07 in 0.26 in (2002)
Month to date precipitation 0.76 1.19  
Year to date precipitation 0.76 1.19  
Snow  
Snow T in - - ()
Month to date snowfall 11.1  
Since 1 July snowfall 28.3  
Snow Depth 1.00 in    
Sea Level Pressure  
Sea Level Pressure 30.16 in    
Wind  
Wind Speed 8 mph (NNW)    
Max Wind Speed 15 mph    
Max Gust Speed 18 mph    
Visibility 10 miles    
Events      
T = Trace of Precipitation, MM = Missing Value Source: NWS Daily Summary

Daily Weather History Graph

Daily Weather History Graph

Search for Another Location

Airport:

Trip Planner

Search our weather history database for the weather conditions in past years. The results will help you decide how hot, cold, wet, or windy it might be!

Date:

Astronomy

Jan. 31, 2014 Rise Set
Actual Time 7:15 AM CST 5:16 PM CST
Civil Twilight 6:45 AM CST 5:46 PM CST
Nautical Twilight 6:12 AM CST 6:19 PM CST
Astronomical Twilight 5:39 AM CST 6:52 PM CST
Moon 7:23 AM CST (1/31) 6:43 PM CST (1/31)
Length of Visible Light 11h 00m
Length of Day
10h 01m
New Moon, 1% of the Moon is Illuminated
Jan 31
New Moon
Feb 6
First Quarter
Feb 14
Full
Feb 22
Last Quarter
Mar 1
New

Hourly Weather History & Observations

Time (CST) Temp. Windchill Dew Point Humidity Pressure Visibility Wind Dir Wind Speed Gust Speed Precip Events Conditions
12:52 AM 12.0 °F -3.4 °F 5.0 °F 73% 30.07 in 10.0 mi WNW 13.8 mph - N/A   Clear
1:52 AM 10.9 °F -5.4 °F 3.9 °F 73% 30.09 in 10.0 mi NW 15.0 mph - N/A   Clear
2:52 AM 10.0 °F -4.5 °F 3.0 °F 73% 30.10 in 10.0 mi WNW 11.5 mph - N/A   Clear
3:52 AM 9.0 °F -6.6 °F 1.9 °F 73% 30.11 in 10.0 mi NW 12.7 mph - N/A   Clear
4:52 AM 8.1 °F -6.2 °F -0.0 °F 70% 30.12 in 10.0 mi NW 10.4 mph - N/A   Clear
5:52 AM 7.0 °F -5.7 °F -0.9 °F 70% 30.16 in 10.0 mi NNW 8.1 mph - N/A   Clear
6:52 AM 7.0 °F -5.7 °F -0.9 °F 70% 30.17 in 10.0 mi NW 8.1 mph - N/A   Overcast
7:52 AM 6.1 °F -6.8 °F -2.0 °F 69% 30.19 in 10.0 mi NW 8.1 mph - N/A   Mostly Cloudy
8:52 AM 7.0 °F -5.7 °F -0.9 °F 70% 30.20 in 10.0 mi NW 8.1 mph - N/A   Partly Cloudy
9:52 AM 7.0 °F -1.7 °F -0.9 °F 70% 30.23 in 10.0 mi WNW 4.6 mph - N/A   Partly Cloudy
10:52 AM 9.0 °F -0.9 °F -0.0 °F 67% 30.25 in 10.0 mi West 5.8 mph - N/A   Scattered Clouds
11:52 AM 10.0 °F 0.4 °F 1.0 °F 67% 30.23 in 10.0 mi WNW 5.8 mph - N/A   Partly Cloudy
12:52 PM 10.9 °F 0.2 °F 1.9 °F 67% 30.21 in 10.0 mi WNW 6.9 mph - N/A   Mostly Cloudy
1:52 PM 12.9 °F 2.6 °F 3.0 °F 65% 30.18 in 10.0 mi NW 6.9 mph - N/A   Clear
2:52 PM 14.0 °F 5.1 °F 3.0 °F 62% 30.18 in 10.0 mi NNW 5.8 mph - N/A   Partly Cloudy
3:52 PM 12.9 °F 3.8 °F 3.0 °F 65% 30.17 in 10.0 mi North 5.8 mph - N/A   Mostly Cloudy
4:52 PM 12.0 °F 0.5 °F 1.9 °F 64% 30.15 in 10.0 mi NNE 8.1 mph - N/A   Clear
5:52 PM 12.0 °F 0.5 °F 1.9 °F 64% 30.15 in 10.0 mi NNE 8.1 mph - N/A   Clear
6:52 PM 10.9 °F 4.7 °F 1.9 °F 67% 30.16 in 10.0 mi ENE 3.5 mph - N/A   Clear
7:52 PM 12.0 °F 4.1 °F 3.0 °F 67% 30.16 in 10.0 mi ESE 4.6 mph - N/A   Partly Cloudy
8:52 PM 12.9 °F 5.2 °F 3.9 °F 67% 30.14 in 10.0 mi East 4.6 mph - N/A   Overcast
9:52 PM 12.9 °F 2.6 °F 3.9 °F 67% 30.13 in 10.0 mi East 6.9 mph - N/A   Scattered Clouds
10:52 PM 14.0 °F 5.1 °F 5.0 °F 67% 30.12 in 10.0 mi East 5.8 mph - 0.00 in   Overcast
11:52 PM 14.0 °F 3.9 °F 7.0 °F 74% 30.08 in 8.0 mi ESE 6.9 mph - N/A   Overcast